Location: Mary A Oil Field
(38.5606°N, 98.9545°W)
Time: 05:05:13
(UTC+00:00)

Cosmos 2297 Rocket - Pass Details

Date: 20 January 2020
Orbit: 838 x 845 km, 71.0° (Epoch: 25 February)

Event Time Altitude Azimuth Distance (km) Brightness Sun altitude
Rises 01:37:46 0° 212° (SSW) 3,377 5.9 -22.2°
Reaches altitude 10° 01:40:14 10° 217° (SW) 2,447 5.2 -22.7°
Maximum altitude 01:45:45 57° 296° (WNW) 983 2.7 -23.8°
Enters shadow 01:49:46 19° 10° (N) 1,907 3.9 -24.6°
